Location: Barcelona
(41.3829°N, 2.1774°E)
Time: 11:46:52
(UTC+00:00)

ISS - Pass Details

Date: 25 February 2026
Orbit: 416 x 427 km, 51.6° (Epoch: 6 March)

Event Time Altitude Azimuth Distance (km) Brightness Sun altitude
Exits shadow 06:25:05 - 309° (NW) 2,387 -0.5 -2.1°
Rises 06:25:09 0° 309° (NW) 2,362 -0.5 -2.1°
Reaches altitude 10° 06:27:24 10° 320° (NW) 1,495 -1.4 -1.7°
Maximum altitude 06:30:27 31° 25° (NNE) 757 -2.3 -1.1°
Drops below altitude 10° 06:33:28 10° 90° (E) 1,488 1.0 -0.6°
Sets 06:35:42 0° 101° (E) 2,348 5.0 -0.2°
